Dewpoint
13 11 10 9 8 7 5 4 4 3 2 1 1 0 1 2 4 4 4 5 5 5 5 4 4 3 3 4 5 5 6 5 6 10 9 9 11 11 10 10 9 7 5
12 11 10 10 9 7 6 5 5 5 4 3 3 3 2 2 2 2 3 4 5 5 6 7 7 6 5 4 5 5 5 6 6 9 9 9 10 10 11 11 10 9 6
12 11 10 10 9 8 7 7 6 6 6 5 5 5 5 4 4 5 4 4 5 10 11 11 11 9 7 7 5 5 4 5 5 6 9 9 9 11 11 11 11 10 7
12 11 11 10 9 9 8 7 7 7 7 7 7 7 8 7 8 8 7 7 6 7 7 8 9 9 8 7 7 7 5 4 4 5 7 9 9 11 10 10 11 11 9
13 12 11 10 10 9 8 8 8 8 8 8 9 9 9 10 9 10 9 9 8 8 8 9 9 8 8 7 7 7 7 7 5 5 5 6 7 10 10 12 11 11 11
14 12 11 10 10 10 9 8 8 9 9 10 9 10 10 10 9 9 8 8 9 8 9 9 9 10 10 9 8 8 8 8 8 8 8 6 5 8 9 11 11 11 12
14 12 11 11 11 10 9 9 10 10 10 10 10 10 10 10 10 10 9 9 9 9 9 9 9 9 9 9 9 9 9 9 9 9 9 9 8 5 6 7 11 11 12
14 12 11 11 10 10 10 10 11 11 11 11 11 11 11 11 11 11 10 10 10 10 10 10 10 10 10 10 10 10 10 10 9 10 9 10 10 11 10 10 9 11 11
13 11 11 11 10 11 11 11 11 11 10 11 11 11 11 10 9 9 8 7 5 5 3 1 -1 -1 -1 -0 3 5 7 9 9 10 10 10 11 11 12 12 9 10 11
12 11 11 11 11 11 11 10 9 8 8 9 9 8 6 4 0 -4 -7 -10 -12 -13 -13 -12 -13 -15 -16 -16 -16 -15 -14 -11 -8 -0 5 8 11 11 11 12 11 10 11
12 12 11 12 11 11 10 8 6 4 4 4 0 -7 -13 -14 -14 -14 -15 -16 -16 -16 -17 -18 -19 -19 -20 -21 -22 -22 -22 -23 -22 -19 -18 -11 1 7 9 10 11 11 10
12 12 12 11 11 10 8 4 -1 -4 -5 -9 -14 -15 -15 -14 -14 -14 -15 -16 -16 -18 -19 -20 -22 -22 -23 -23 -23 -23 -23 -24 -24 -24 -24 -24 -21 -19 -8 3 9 11 11
12 12 12 11 10 9 5 -4 -12 -19 -18 -16 -15 -13 -12 -12 -12 -14 -16 -18 -20 -22 -22 -23 -24 -24 -25 -25 -24 -24 -23 -23 -23 -22 -21 -21 -20 -20 -18 -18 -8 4 9
12 12 11 10 9 6 -1 -13 -18 -18 -15 -13 -11 -11 -11 -13 -14 -17 -19 -20 -22 -23 -25 -26 -26 -27 -28 -27 -26 -24 -23 -23 -23 -22 -22 -21 -20 -17 -17 -15 -16 -14 -4
12 12 11 10 7 5 -6 -14 -14 -13 -12 -11 -10 -11 -12 -14 -17 -19 -20 -22 -23 -25 -25 -26 -27 -28 -28 -29 -30 -29 -28 -26 -24 -22 -18 -15 -11 -11 -6 -5 -9 -10 -10
12 12 11 9 6 2 -7 -12 -13 -12 -11 -10 -11 -12 -14 -16 -18 -19 -22 -23 -24 -25 -25 -26 -26 -26 -27 -28 -29 -30 -30 -29 -28 -23 -16 -10 -7 -5 -4 -3 -3 -3 -3
12 12 10 8 5 1 -7 -10 -11 -11 -10 -11 -12 -14 -17 -17 -18 -22 -23 -23 -24 -25 -24 -24 -24 -25 -25 -26 -26 -28 -29 -30 -26 -20 -14 -10 -8 -10 -12 -13 -12 -11 -9
11 10 9 7 4 -3 -7 -10 -11 -10 -11 -12 -14 -16 -17 -18 -21 -22 -23 -23 -23 -23 -23 -23 -24 -24 -24 -24 -24 -25 -27 -27 -24 -19 -15 -13 -11 -10 -11 -14 -18 -17 -16
8 7 7 4 -0 -5 -7 -9 -10 -10 -11 -13 -16 -17 -17 -20 -21 -21 -22 -22 -22 -22 -22 -22 -22 -23 -23 -23 -23 -24 -24 -23 -21 -14 -10 -12 -14 -16 -18 -18 -18 -19 -19
5 3 3 2 -3 -6 -8 -8 -9 -10 -11 -13 -16 -17 -19 -20 -20 -20 -21 -21 -20 -21 -21 -21 -21 -21 -22 -22 -22 -22 -22 -21 -16 -13 -18 -16 -18 -18 -20 -19 -18 -17 -17
2 -1 -4 -4 -5 -7 -7 -8 -9 -9 -11 -14 -15 -17 -19 -19 -19 -19 -19 -20 -20 -20 -21 -20 -21 -21 -22 -23 -24 -22 -22 -20 -15 -22 -16 -19 -19 -20 -20 -19 -19 -16 -15
1 -2 -5 -6 -7 -7 -9 -10 -9 -9 -11 -13 -15 -17 -17 -17 -18 -18 -19 -19 -19 -20 -20 -20 -20 -22 -23 -24 -25 -24 -21 -18 -21 -19 -22 -19 -22 -24 -23 -22 -17 -16 -16
0 -1 -5 -7 -7 -8 -8 -7 -7 -7 -10 -12 -14 -16 -16 -16 -17 -18 -18 -18 -19 -19 -19 -20 -21 -22 -23 -24 -26 -24 -17 -16 -22 -28 -21 -28 -27 -27 -25 -23 -20 -18 -18
0 -1 -4 -7 -8 -8 -7 -7 -7 -9 -11 -12 -14 -15 -16 -15 -16 -16 -17 -17 -18 -19 -19 -20 -21 -23 -25 -27 -25 -23 -21 -18 -14 -14 -33 -33 -33 -29 -25 -20 -19 -20 -20
0 -1 -3 -5 -6 -6 -6 -6 -6 -7 -11 -12 -14 -15 -15 -14 -15 -16 -16 -17 -18 -18 -19 -20 -22 -25 -27 -27 -27 -26 -25 -22 -15 -15 -12 -30 -33 -26 -25 -19 -18 -20 -17
-0 -1 -3 -4 -6 -6 -6 -5 -5 -7 -10 -11 -14 -14 -14 -14 -15 -15 -16 -17 -17 -18 -19 -22 -25 -26 -25 -25 -25 -26 -28 -26 -23 -19 -15 -18 -19 -21 -23 -19 -20 -20 -18
Wind_Speed
19 17 15 14 12 11 9 8 7 8 8 8 8 8 8 8 7 6 5 6 6 6 7 7 7 7 7 7 7 7 6 7 7 7 8 8 8 10 12 13 16 18 18
20 18 16 15 13 11 9 8 7 6 6 7 7 6 6 6 5 5 4 4 4 5 6 6 6 6 7 7 7 7 6 6 5 6 8 9 9 8 11 12 14 17 18
20 19 17 14 13 11 10 8 7 6 5 5 5 4 4 4 4 4 4 3 3 4 5 5 5 5 5 5 5 5 5 6 6 5 8 8 9 9 10 12 14 17 18
19 18 16 15 13 11 10 8 7 6 4 4 3 3 2 2 3 2 2 2 2 2 2 2 3 5 5 5 6 6 7 8 8 7 8 10 10 10 10 10 12 16 18
15 16 16 14 13 11 10 8 7 6 5 5 4 3 2 2 2 2 1 1 2 2 3 4 5 6 7 6 5 5 6 8 9 9 8 10 11 11 12 9 11 13 16
15 17 16 15 12 11 9 8 7 6 5 6 5 4 3 1 2 2 3 4 5 6 6 7 8 8 9 10 9 8 8 8 10 10 9 9 11 12 12 11 11 11 13
16 18 16 14 12 11 10 8 6 6 5 3 1 1 1 1 2 3 3 4 4 5 6 7 8 9 9 10 11 11 10 9 10 11 11 11 11 12 14 13 13 13 12
14 18 17 16 14 11 9 8 7 5 4 3 3 2 1 0 1 2 3 3 4 5 6 6 8 9 10 10 11 12 13 13 12 13 14 13 11 11 13 16 15 14 13
16 18 18 17 15 12 10 9 8 6 5 4 3 2 1 0 1 1 2 3 4 5 7 8 9 10 10 11 12 13 14 14 15 15 15 16 16 13 12 13 13 15 16
19 19 18 16 15 13 12 11 9 8 6 5 4 3 2 0 1 2 3 5 7 8 10 11 11 12 12 13 13 13 14 13 14 14 16 17 16 16 14 17 15 16 16
23 22 20 18 16 14 13 11 10 8 8 7 5 5 3 1 1 3 5 7 8 9 10 11 11 12 12 13 14 14 14 15 15 14 14 15 15 16 15 16 18 18 19
29 26 23 20 17 15 14 12 11 10 10 10 8 5 2 1 3 5 6 7 9 9 9 10 10 11 11 11 12 13 14 14 15 16 15 14 14 13 14 15 18 20 20
29 28 25 21 18 15 14 13 13 14 13 10 7 4 2 3 5 6 7 7 7 8 9 10 11 12 13 14 13 13 13 13 14 14 14 15 14 14 14 15 16 19 17
31 27 26 23 20 18 16 15 16 15 12 9 6 4 2 3 3 4 6 7 9 10 11 12 13 14 15 16 16 15 15 15 14 13 13 14 15 15 15 15 17 17 18
31 29 27 24 22 20 18 18 17 15 12 9 6 3 2 2 3 5 6 8 10 11 13 14 15 15 15 15 15 15 15 14 14 12 11 12 11 14 14 14 16 17 16
33 31 29 27 24 22 20 19 18 15 12 9 6 4 2 2 3 4 6 8 10 12 14 15 15 16 16 16 15 15 14 14 13 12 10 10 10 11 11 12 13 15 15
35 33 31 29 27 24 22 20 18 15 12 8 6 4 2 2 3 5 7 9 11 13 14 14 14 14 14 15 15 15 14 12 10 9 9 9 10 12 14 15 16 17 17
35 35 33 32 29 26 24 23 19 16 12 9 7 5 3 2 3 5 8 10 11 13 14 15 15 15 15 15 15 14 13 11 10 9 10 11 13 14 16 18 19 18 16
35 35 34 33 31 29 26 23 20 16 13 10 7 6 3 0 3 5 7 10 11 13 14 15 16 16 16 16 15 15 12 9 8 8 8 10 13 16 20 20 19 19 18
35 35 34 34 33 30 28 26 23 18 15 12 10 7 3 0 3 5 7 8 10 12 14 16 18 18 18 17 16 13 11 8 7 9 13 13 15 18 20 19 18 17 16
36 37 37 37 36 34 33 30 26 21 18 14 11 7 4 2 1 4 7 9 11 13 16 17 19 19 18 17 14 11 6 9 5 19 10 18 16 20 20 18 17 16 16
41 39 39 39 38 37 33 30 26 22 19 15 12 10 7 3 1 4 6 8 11 13 14 16 17 19 19 19 18 11 6 6 10 7 16 11 19 23 21 21 16 15 17
45 42 41 39 38 36 33 31 27 24 21 19 15 11 7 3 1 4 7 9 10 12 14 16 16 17 18 18 18 13 5 4 17 13 7 22 22 24 23 21 17 17 18
48 42 39 39 38 36 36 34 31 28 25 20 15 12 9 5 3 3 6 8 10 11 13 14 15 16 15 16 15 16 14 14 7 10 13 16 21 24 28 18 18 20 18
50 45 40 39 39 38 37 35 31 26 22 20 18 16 12 7 4 3 5 7 8 10 11 12 14 14 15 14 14 14 13 12 9 12 15 28 29 22 28 14 18 22 19
51 46 44 42 41 39 39 36 31 28 27 24 21 17 13 10 7 4 5 6 8 9 10 11 12 12 13 13 13 14 14 13 14 14 20 27 27 29 19 24 25 22 19
Wind_Direction
178 172 170 162 158 156 153 149 138 128 123 120 117 116 114 110 106 103 96 85 74 65 55 51 48 45 40 33 30 25 16 21 13 10 12 9 2 9 16 17 16 12 3
171 172 173 165 160 162 161 158 150 137 129 125 120 113 104 101 99 94 85 78 70 62 51 44 41 40 38 33 24 19 4 1 4 340 349 357 354 356 4 4 7 8 4
173 175 171 165 166 168 167 165 159 151 142 126 111 109 111 112 114 107 96 93 85 84 64 42 20 22 25 25 17 7 356 341 338 330 318 336 346 337 337 352 355 1 1
172 172 170 170 173 171 171 171 168 161 151 144 143 140 129 123 120 110 96 73 52 31 10 354 340 345 352 355 353 350 342 333 330 325 310 315 327 335 330 332 348 355 355
169 173 174 176 178 176 177 177 174 173 172 170 173 179 167 117 130 132 178 318 317 312 309 318 320 325 326 323 325 327 323 320 319 319 317 309 309 317 329 307 332 342 348
184 181 178 181 178 179 183 184 188 188 188 190 197 198 213 246 319 316 329 323 320 317 311 310 314 316 319 321 320 317 313 310 308 310 313 308 302 302 307 313 304 324 337
184 180 178 179 181 186 189 192 190 193 200 216 242 248 289 327 330 337 333 325 315 312 315 316 314 315 317 315 310 310 304 300 297 301 304 302 301 300 306 303 297 300 318
192 182 181 182 188 189 188 189 188 191 188 193 188 187 192 177 4 352 345 331 326 328 332 330 329 327 326 324 322 320 316 318 309 304 303 307 305 300 304 314 303 291 297
191 186 188 191 187 187 189 187 185 188 185 184 180 156 142 309 345 343 331 328 331 334 334 334 336 335 333 330 326 323 321 318 316 313 310 308 308 302 297 298 297 293 280
188 191 192 191 188 187 187 184 182 179 173 173 178 181 196 199 22 359 345 337 338 338 338 338 339 338 336 333 329 326 324 323 318 312 309 308 311 309 301 293 290 285 288
186 190 191 189 188 185 186 182 180 179 177 175 171 153 137 114 344 335 331 333 332 334 335 334 334 332 332 330 325 324 323 322 321 318 316 317 313 312 309 302 292 284 286
191 188 190 189 190 188 185 182 179 176 171 164 162 159 158 294 321 319 325 330 334 335 336 336 336 335 330 326 326 325 324 323 320 320 320 322 327 317 301 291 289 281 294
194 190 192 189 190 192 190 184 177 168 165 166 168 178 224 300 319 327 332 334 338 340 340 343 343 341 342 340 336 333 331 327 323 322 321 321 316 316 312 304 295 288 284
191 194 196 193 191 192 194 184 176 172 172 175 188 208 250 300 317 326 332 340 343 345 347 348 349 352 350 345 343 342 339 336 330 329 327 323 319 311 304 305 303 300 291
199 198 199 198 195 195 195 188 183 183 181 185 196 210 248 293 320 332 335 340 343 348 349 351 354 354 353 349 346 343 340 336 332 332 335 330 326 318 325 319 305 303 301
206 204 202 201 198 197 197 194 191 189 188 192 196 208 232 284 313 330 343 346 349 350 352 354 356 357 355 350 348 346 343 337 331 330 334 338 335 338 337 334 330 322 317
205 204 203 202 200 200 198 196 195 193 191 193 198 204 222 278 316 346 354 354 354 355 356 357 356 357 356 354 348 346 342 334 328 326 327 332 338 341 341 333 329 327 323
206 204 204 205 205 202 199 199 198 195 192 192 196 197 217 261 347 3 2 358 1 0 357 356 358 0 359 357 352 348 341 330 325 326 335 341 344 345 342 335 330 329 328
206 206 205 205 205 202 199 199 198 196 192 194 195 200 206 238 15 10 6 5 4 358 356 357 357 359 2 4 0 355 349 337 335 340 345 347 346 351 349 341 334 327 322
208 208 207 205 205 201 199 199 198 196 193 191 194 199 196 79 17 11 8 8 5 2 360 360 360 2 5 8 4 3 360 353 349 1 337 345 350 356 354 350 345 341 339
208 207 206 205 204 203 200 199 199 197 193 192 191 190 189 176 30 13 10 9 5 2 4 2 359 360 4 9 9 7 4 349 353 341 350 341 351 352 354 355 353 349 344
208 206 207 206 206 205 206 206 204 197 192 194 192 194 194 189 356 3 5 4 6 5 3 1 2 2 3 6 12 9 353 340 343 358 334 355 350 349 355 0 2 355 350
209 208 207 208 208 208 204 203 197 197 198 195 195 196 194 203 297 345 356 358 360 0 358 357 360 0 3 3 7 20 13 329 338 346 356 342 344 351 356 2 3 358 355
211 208 209 210 209 208 206 205 207 208 203 198 199 197 203 210 249 328 345 351 354 355 354 354 356 356 357 1 6 12 10 353 330 326 327 338 339 345 351 354 360 353 349
211 208 210 210 210 208 207 209 210 209 208 203 198 201 203 208 234 288 329 337 341 347 349 350 350 351 354 357 2 3 360 355 342 325 324 337 336 348 348 353 350 344 347
211 207 210 209 209 209 209 209 210 210 206 203 202 203 203 210 228 255 303 315 331 339 344 344 346 349 354 357 358 359 355 348 336 335 324 330 333 332 351 347 345 343 347
Height
1519 1522 1524 1526 1528 1529 1530 1532 1532 1532 1532 1533 1533 1533 1533 1533 1534 1535 1535 1535 1536 1536 1536 1535 1536 1535 1535 1534 1533 1533 1532 1531 1531 1530 1530 1529 1528 1527 1525 1524 1523 1521 1519
1518 1521 1523 1525 1527 1529 1530 1531 1532 1532 1532 1533 1533 1534 1534 1534 1535 1535 1535 1535 1536 1536 1536 1536 1536 1535 1535 1534 1533 1533 1532 1531 1531 1530 1529 1528 1527 1527 1526 1524 1523 1521 1519
1518 1521 1523 1525 1527 1528 1529 1530 1531 1532 1533 1533 1534 1534 1535 1535 1535 1535 1535 1535 1536 1536 1536 1535 1535 1535 1535 1534 1534 1533 1531 1530 1530 1530 1528 1528 1527 1526 1526 1525 1523 1521 1519
1518 1521 1523 1525 1526 1527 1528 1530 1531 1532 1532 1533 1533 1534 1534 1534 1535 1535 1535 1535 1536 1535 1535 1535 1535 1535 1534 1534 1534 1533 1532 1530 1530 1529 1529 1527 1527 1526 1525 1524 1523 1522 1520
1518 1521 1522 1524 1526 1527 1528 1529 1530 1531 1532 1532 1533 1534 1534 1535 1534 1535 1535 1535 1535 1535 1535 1534 1534 1534 1534 1533 1533 1532 1531 1530 1529 1528 1528 1527 1526 1525 1524 1523 1523 1522 1521
1517 1520 1521 1524 1525 1526 1527 1528 1529 1530 1531 1532 1533 1533 1534 1535 1535 1535 1536 1535 1535 1535 1534 1534 1534 1533 1533 1532 1532 1531 1531 1530 1528 1527 1527 1525 1525 1524 1523 1522 1522 1521 1520
1516 1518 1521 1523 1524 1524 1526 1527 1529 1530 1531 1532 1533 1534 1534 1535 1534 1535 1535 1535 1534 1534 1534 1533 1533 1532 1532 1531 1530 1530 1529 1528 1527 1526 1525 1524 1524 1523 1522 1521 1520 1520 1519
1516 1517 1519 1521 1523 1524 1525 1527 1529 1529 1530 1532 1532 1532 1533 1533 1534 1534 1534 1534 1533 1534 1533 1533 1532 1531 1530 1530 1529 1529 1527 1527 1526 1525 1523 1523 1522 1522 1521 1520 1519 1518 1518
1515 1516 1518 1520 1521 1523 1525 1526 1527 1528 1530 1531 1532 1533 1533 1534 1534 1534 1533 1533 1533 1533 1532 1532 1531 1531 1530 1529 1528 1528 1526 1525 1524 1523 1522 1521 1521 1520 1519 1517 1516 1516 1516
1513 1515 1517 1520 1521 1522 1524 1525 1527 1528 1529 1530 1531 1532 1533 1533 1533 1533 1533 1533 1533 1532 1532 1531 1531 1530 1529 1528 1527 1525 1525 1523 1522 1520 1519 1519 1518 1517 1517 1515 1514 1514 1513
1510 1512 1515 1518 1520 1521 1522 1524 1526 1527 1528 1530 1530 1531 1532 1533 1533 1533 1533 1533 1532 1532 1531 1531 1530 1529 1528 1527 1525 1524 1523 1521 1519 1517 1516 1516 1515 1514 1513 1512 1510 1509 1511
1506 1509 1512 1516 1519 1520 1521 1522 1524 1526 1527 1528 1530 1531 1532 1532 1533 1532 1532 1531 1531 1531 1530 1529 1528 1527 1526 1524 1523 1522 1521 1519 1517 1515 1514 1513 1512 1511 1509 1507 1507 1506 1508
1506 1507 1509 1512 1516 1519 1520 1520 1522 1524 1526 1527 1529 1530 1531 1531 1531 1531 1531 1530 1530 1530 1529 1528 1527 1526 1524 1522 1520 1518 1518 1517 1515 1514 1512 1511 1509 1508 1506 1505 1503 1503 1503
1502 1507 1508 1509 1513 1516 1519 1519 1521 1523 1525 1527 1528 1529 1529 1529 1530 1530 1529 1529 1528 1527 1526 1525 1524 1523 1522 1519 1518 1516 1516 1514 1513 1512 1510 1509 1508 1505 1503 1502 1500 1499 1499
1500 1503 1506 1508 1510 1513 1516 1518 1520 1522 1524 1525 1526 1527 1528 1528 1528 1528 1528 1527 1526 1525 1524 1524 1523 1522 1520 1518 1517 1515 1513 1512 1511 1510 1508 1507 1506 1504 1502 1499 1497 1496 1496
1496 1500 1503 1506 1507 1510 1514 1517 1519 1521 1522 1524 1525 1526 1526 1526 1526 1526 1526 1525 1525 1523 1522 1521 1520 1519 1518 1516 1514 1512 1511 1510 1509 1508 1507 1506 1504 1503 1501 1499 1496 1494 1493
1492 1496 1500 1504 1505 1506 1510 1515 1517 1519 1521 1522 1523 1524 1524 1525 1525 1525 1524 1523 1522 1521 1520 1520 1519 1518 1516 1514 1512 1510 1508 1506 1505 1505 1505 1503 1503 1501 1499 1498 1495 1493 1491
1489 1493 1496 1500 1503 1504 1507 1511 1514 1516 1518 1520 1521 1522 1522 1523 1523 1523 1522 1521 1520 1519 1518 1517 1516 1515 1514 1512 1510 1508 1506 1504 1503 1503 1502 1501 1501 1499 1497 1495 1493 1491 1489
1486 1490 1493 1497 1500 1502 1505 1508 1511 1513 1515 1518 1519 1519 1520 1520 1521 1520 1520 1519 1518 1517 1516 1514 1513 1513 1511 1510 1508 1506 1505 1502 1502 1502 1501 1500 1499 1498 1496 1493 1490 1488 1486
1483 1487 1491 1494 1497 1499 1502 1505 1507 1510 1512 1514 1516 1517 1518 1518 1519 1518 1518 1517 1517 1516 1514 1512 1510 1510 1509 1508 1506 1503 1502 1501 1500 1500 1499 1498 1497 1496 1493 1491 1488 1485 1483
1479 1482 1485 1489 1492 1494 1497 1501 1504 1507 1510 1512 1513 1515 1516 1517 1517 1517 1516 1516 1515 1513 1511 1510 1508 1507 1507 1506 1505 1502 1501 1500 1500 1498 1496 1495 1494 1494 1492 1488 1485 1484 1481
1471 1476 1480 1484 1487 1490 1494 1498 1502 1505 1507 1510 1511 1512 1513 1514 1514 1514 1513 1512 1511 1510 1509 1508 1507 1504 1502 1502 1502 1501 1500 1501 1499 1497 1494 1492 1492 1491 1489 1487 1483 1481 1478
1465 1469 1475 1480 1484 1487 1491 1495 1498 1501 1504 1505 1507 1509 1510 1511 1512 1512 1511 1510 1509 1507 1506 1505 1504 1502 1499 1498 1498 1499 1496 1499 1496 1495 1492 1489 1488 1487 1486 1483 1482 1480 1476
1458 1466 1471 1475 1479 1483 1486 1489 1492 1494 1497 1501 1503 1505 1506 1508 1509 1509 1509 1508 1507 1506 1505 1503 1502 1501 1500 1498 1496 1496 1496 1495 1495 1491 1493 1488 1486 1485 1484 1481 1477 1477 1475
1450 1458 1466 1470 1475 1478 1481 1484 1488 1492 1495 1497 1499 1501 1502 1504 1505 1506 1506 1506 1505 1504 1503 1502 1500 1498 1497 1497 1495 1494 1495 1494 1492 1492 1484 1483 1483 1484 1479 1479 1476 1473 1472
1444 1451 1457 1462 1467 1472 1475 1479 1483 1486 1489 1493 1496 1498 1500 1500 1502 1503 1503 1503 1502 1501 1500 1499 1498 1497 1496 1495 1494 1492 1492 1493 1491 1490 1485 1479 1477 1478 1478 1474 1473 1471 1469